Location: Gro�bocka
(50.8204°N, 11.9702°E)
Time: 05:17:49
(UTC+00:00)

X-37B - Pass Details

Date: 30 June 2021
Orbit: 383 x 392 km, 45.0° (Epoch: 01 July)

Event Time Altitude Azimuth Distance (km) Brightness Sun altitude
Rises 21:44:23 0° 264° (W) 2,258 4.7 -13.4°
Reaches altitude 10° 21:47:07 10° 239° (WSW) 1,402 3.3 -13.5°
Enters shadow 21:48:26 14° 214° (SW) 1,187 2.7 -13.6°
